Tracking 30260 objects as of 14-Feb-2025
HD Live streaming from Space Station
objects crossing your sky now

CZ-4 DEB

Track CZ-4 DEB now!
10-day predictions


NORAD ID: 37613
Int'l Code: 1990-081CZ
Perigee: 765.1 km
Apogee: 1,000.9 km
Inclination: 98.8 °
Period: 102.5 minutes
Semi major axis: 7253 km
RCS: 0.0075 m2 (small)
Launch date: September 3, 1990
Source: People's Republic of China (PRC)
Launch site: Taiyaun Space Center, China (TSC)

Note: This is SATELLITE DEBRIS
Your satellite tracking list
Your tracking list is empty




NASA's NSSDC Master Catalog

Two Line Element Set (TLE):
1 37613U 90081CZ  25045.47765810  .00007308  00000-0  40381-2 0  9998
2 37613  98.8493 235.7653 0162523 340.0954  19.3921 14.05203080 64040
Source of the keplerian elements: AFSPC